Overview Statistics Trail Chart Weather Telemetry Raw packets
 

This is the latest recevied weather packets stored in our database for station/object 4S6DRJ-13. If no packets are shown the sender has not sent any weather packets the latest 10 day(s).

<< 204 205 206 207 208 209 210 >>
Time Temp. Humidity Pressure Rain* Wind** Luminosity Snow
1788163107 31.11° C 70% 1007.7 hPa 0 mm 1.79 m/s, 265° 420 W/m² -
1788163045 31.11° C 70% 1007.8 hPa 0 mm 3.13 m/s, 231° 1131 W/m² -
1788162998 31.11° C 70% 1007.6 hPa 0 mm 1.34 m/s, 177° 1139 W/m² -
1788162923 31.11° C 69% 1007.7 hPa 0 mm 1.34 m/s, 323° 1101 W/m² -
1788162862 31.11° C 70% 1007.8 hPa 0 mm 2.24 m/s, 357° 406 W/m² -
1788162801 31.11° C 70% 1007.7 hPa 0 mm 1.79 m/s, 68° 405 W/m² -
1788162740 31.11° C 70% 1007.7 hPa 0 mm 1.79 m/s, 208° 723 W/m² -
1788162680 31.11° C 68% 1007.8 hPa 0 mm 2.24 m/s, 287° 1131 W/m² -
1788162618 31.11° C 68% 1007.7 hPa 0 mm 3.13 m/s, 331° 739 W/m² -
1788162557 31.11° C 68% 1007.6 hPa 0 mm 1.34 m/s, 87° 368 W/m² -
1788162496 31.11° C 70% 1007.8 hPa 0 mm 1.34 m/s, 95° 358 W/m² -
1788162435 31.11° C 69% 1008 hPa 0 mm 1.79 m/s, 313° 1127 W/m² -
1788162375 31.11° C 68% 1007.8 hPa 0 mm 3.58 m/s, 89° 688 W/m² -
1788162314 31.11° C 67% 1007.8 hPa 0 mm 0.45 m/s, 102° 1130 W/m² -
1788162252 31.11° C 67% 1007.9 hPa 0 mm 3.13 m/s, 311° 402 W/m² -
1788162192 31.11° C 67% 1007.9 hPa 0 mm 4.02 m/s, 317° 1129 W/m² -
1788162139 31.11° C 68% 1008.1 hPa 0 mm 1.79 m/s, 311° 1100 W/m² -
1788162069 30.56° C 69% 1008.1 hPa 0 mm 0.89 m/s, 68° 1131 W/m² -
1788162008 30.56° C 68% 1008 hPa 0 mm 1.79 m/s, 160° 392 W/m² -
1788161947 30.56° C 70% 1008 hPa 0 mm 1.79 m/s, 202° 438 W/m² -
1788161886 30.56° C 70% 1008.2 hPa 0 mm 2.24 m/s, 270° 1140 W/m² -
1788161825 30.56° C 69% 1008 hPa 0 mm 2.68 m/s, 290° 1108 W/m² -
1788161764 30.56° C 68% 1008.1 hPa 0 mm 3.13 m/s, 290° 383 W/m² -
1788161703 30.56° C 69% 1008 hPa 0 mm 2.24 m/s, 212° 501 W/m² -
1788161642 30.56° C 68% 1007.9 hPa 0 mm 3.58 m/s, 237° 391 W/m² -

* Rain latest hour (hover to see other rain measurements)
** Current wind speed in m/s (hover to see current wind gust speed)